This is the latest recevied weather packets stored in our database for station/object N5ATR. If no packets are shown the sender has not sent any weather packets the latest 10 day(s).
| Time | Temp. | Humidity | Pressure | Rain* | Wind** | Luminosity | Snow |
|---|---|---|---|---|---|---|---|
| 1788418255 | 17.22° C | 48% | 1021.8 hPa | 0 mm | - | 0 W/m² | - |
| 1788417954 | 17.22° C | 47% | 1022.2 hPa | 0 mm | - | 0 W/m² | - |
| 1788417650 | 17.78° C | 46% | 1022 hPa | 0 mm | - | 0 W/m² | - |
| 1788417345 | 17.78° C | 45% | 1021.9 hPa | 0 mm | - | 0 W/m² | - |
| 1788417041 | 17.22° C | 46% | 1021.9 hPa | 0 mm | - | 0 W/m² | - |
| 1788416736 | 17.22° C | 47% | 1022 hPa | 0 mm | - | 0 W/m² | - |
| 1788416431 | 16.67° C | 46% | 1021.9 hPa | 0 mm | - | 0 W/m² | - |
| 1788416127 | 16.67° C | 46% | 1022 hPa | 0 mm | - | 0 W/m² | - |
| 1788415826 | 16.67° C | 47% | 1022.2 hPa | 0 mm | - | 0 W/m² | - |
| 1788415526 | 16.67° C | 47% | 1022.3 hPa | 0 mm | - | 0 W/m² | - |
| 1788415221 | 16.67° C | 47% | 1022 hPa | 0 mm | - | 0 W/m² | - |
| 1788414918 | 17.22° C | 47% | 1021.9 hPa | 0 mm | - | 0 W/m² | - |
| 1788414617 | 17.78° C | 46% | 1022 hPa | 0 mm | - | 0 W/m² | - |
| 1788414313 | 17.22° C | 47% | 1022 hPa | 0 mm | - | 0 W/m² | - |
| 1788414009 | 17.78° C | 46% | 1022.3 hPa | 0 mm | - | 0 W/m² | - |
| 1788413708 | 17.78° C | 45% | 1022.2 hPa | 0 mm | - | 0 W/m² | - |
| 1788413405 | 18.33° C | 45% | 1022.2 hPa | 0 mm | - | 0 W/m² | - |
| 1788413100 | 18.89° C | 43% | 1022 hPa | 0 mm | - | 0 W/m² | - |
| 1788412796 | 18.89° C | 43% | 1021.9 hPa | 0 mm | - | 0 W/m² | - |
| 1788412491 | 18.89° C | 45% | 1022 hPa | 0 mm | - | 0 W/m² | - |
| 1788412187 | 18.89° C | 42% | 1022.3 hPa | 0 mm | - | 0 W/m² | - |
| 1788411885 | 18.89° C | 45% | 1022.3 hPa | 0 mm | - | 0 W/m² | - |
| 1788411580 | 18.33° C | 45% | 1022.2 hPa | 0 mm | - | 0 W/m² | - |
| 1788411276 | 18.89° C | 46% | 1022.2 hPa | 0 mm | - | 0 W/m² | - |
| 1788410972 | 19.44° C | 44% | 1022 hPa | 0 mm | - | 0 W/m² | - |
* Rain latest hour (hover to see other rain measurements)
** Current wind speed in m/s (hover to see current wind gust speed)